Wind_Speed
19 19 20 20 21 22 22 22 23 22 22 22 22 21 21 20 20 19 18 17 17 17 16 16 16 16 15 15 15 15 15 14 14 14 15 15 14 14 13 13 13 12 13 13 13 13 13 14 14 15 15 15 15 15 15 15 15 15 15 15 14 15 15 14 15 15 15 15 15 15 15 15 15 16 16 16 16 15 15 16 14 14 15 14 14 15 15 16
23 22 22 21 21 22 22 22 22 22 22 22 22 21 21 21 21 20 20 19 19 18 18 18 18 18 17 17 17 17 17 17 16 16 16 16 16 16 16 16 15 15 15 15 15 15 15 15 15 16 16 16 16 16 16 16 16 16 16 16 16 16 16 16 16 16 16 16 16 15 16 16 15 15 16 16 16 16 15 15 14 15 15 13 13 14 14 15
27 26 25 25 25 24 24 23 23 23 23 23 23 23 22 22 22 22 22 22 21 21 21 20 20 20 20 19 19 19 19 19 19 19 18 18 19 19 19 18 18 18 17 17 17 17 16 16 17 17 17 17 17 17 17 17 18 18 18 17 17 17 18 17 17 17 17 17 16 16 16 17 16 16 16 16 16 16 16 16 15 15 15 14 14 14 14 15
30 29 29 28 28 28 27 27 27 26 26 26 26 25 25 25 25 25 25 25 24 24 24 23 23 23 22 22 22 22 22 21 21 21 21 21 21 21 20 20 20 20 20 20 20 20 19 19 19 19 19 19 19 19 19 19 19 19 19 19 18 19 19 19 19 19 19 18 18 17 17 17 17 17 17 17 17 17 17 17 16 16 16 15 15 15 15 15
32 32 32 31 31 31 31 31 30 30 30 30 29 29 29 29 28 28 28 28 28 28 27 27 26 26 25 25 25 24 24 24 23 23 24 23 23 23 22 22 22 22 22 23 22 22 22 22 21 21 21 21 21 20 20 21 21 20 21 21 20 20 20 20 20 20 20 20 20 18 18 18 17 18 18 18 18 17 18 19 18 17 18 17 17 17 16 16
34 34 34 34 34 34 34 33 33 33 33 33 33 33 32 32 32 32 31 31 30 31 30 30 30 29 28 28 27 27 27 27 26 25 26 26 26 25 25 25 24 24 25 25 25 24 24 24 24 24 24 23 23 23 23 22 22 22 22 22 22 22 22 21 21 21 21 21 22 20 19 19 18 18 19 20 19 18 19 20 20 19 19 19 19 19 18 18
35 35 36 36 36 36 36 36 36 36 35 35 35 35 35 35 35 35 34 33 33 33 33 33 32 32 32 31 30 30 29 29 28 28 28 28 28 28 27 27 27 27 27 27 27 27 27 27 27 26 26 26 25 25 25 25 25 24 24 23 24 24 24 24 23 23 22 22 22 22 21 20 19 19 21 22 19 17 19 20 21 21 21 21 21 21 21 20
36 37 37 37 37 37 38 38 38 38 38 37 37 37 37 37 37 37 37 36 36 35 35 35 34 34 34 34 33 32 32 32 31 31 30 30 30 30 29 29 29 29 29 29 29 29 29 29 29 28 28 28 28 27 27 27 27 26 26 26 26 26 25 25 25 25 24 24 24 23 23 22 20 19 22 25 21 18 19 20 21 22 22 22 22 23 24 23
36 36 37 37 38 38 39 39 39 39 39 39 39 39 39 39 39 39 39 38 38 37 37 36 36 36 36 36 35 34 34 34 33 33 33 32 32 31 31 31 31 31 31 32 32 31 31 31 30 30 30 30 30 30 30 30 29 28 28 28 28 28 27 27 27 27 27 26 26 24 24 23 21 20 23 26 22 19 20 20 21 23 23 24 24 25 25 25
35 35 36 36 37 38 38 39 39 39 40 40 40 40 40 41 41 41 41 40 40 40 39 39 38 38 37 37 37 36 36 36 35 35 35 34 34 33 33 33 33 33 33 33 34 34 33 33 32 32 32 32 32 32 32 32 32 31 30 30 30 30 30 29 29 29 29 28 29 28 25 24 22 21 23 24 22 21 21 21 22 23 24 25 26 27 27 28
35 35 35 35 36 36 37 38 38 39 39 40 40 41 41 41 42 42 42 42 42 42 42 41 41 41 40 39 38 37 37 37 36 36 36 36 35 35 35 34 34 35 35 35 35 35 35 35 34 34 34 34 34 34 34 33 34 33 33 32 32 32 32 31 32 31 31 31 31 30 27 25 24 22 23 24 23 24 23 23 24 25 25 26 27 28 29 30
36 36 36 36 36 36 36 37 37 37 38 39 40 40 40 41 42 43 43 43 43 43 43 43 43 43 43 42 40 40 39 38 37 37 37 37 36 36 36 36 36 36 36 36 37 37 37 37 36 36 36 36 36 36 35 35 35 35 35 36 35 34 33 32 34 34 33 33 33 34 29 23 24 22 23 27 26 25 24 25 26 26 26 27 28 29 30 31
38 38 37 37 37 37 37 37 37 37 37 38 39 39 39 40 41 42 42 43 44 44 45 45 45 45 45 43 41 42 41 40 39 38 38 37 37 37 37 37 37 37 38 38 38 38 38 38 38 38 37 38 38 38 37 37 37 37 37 37 37 36 35 34 34 35 35 35 35 38 32 23 24 26 25 28 30 28 26 26 28 29 28 29 30 31 32 33
39 39 38 38 38 38 38 38 38 38 38 39 40 40 39 39 40 41 41 42 43 44 45 45 46 46 47 44 42 43 42 42 41 40 40 39 38 38 38 38 38 38 39 39 39 39 39 39 39 38 38 39 39 39 39 39 37 38 40 39 38 38 38 36 36 37 37 37 38 41 38 26 24 30 29 30 33 31 29 28 29 31 30 30 32 33 34 35
39 39 39 39 39 39 39 39 39 39 39 40 41 41 40 40 40 41 41 41 42 43 44 45 46 47 47 45 42 43 43 43 43 42 41 40 39 39 39 39 39 39 39 39 39 39 39 39 39 39 38 39 40 40 40 40 39 40 42 40 39 40 40 39 39 39 39 40 41 43 43 33 25 30 33 32 34 34 31 29 30 33 32 32 34 36 37 37
39 40 40 40 40 40 40 40 40 40 40 41 42 43 42 42 41 42 42 41 42 43 43 44 45 46 47 44 42 43 43 44 44 43 42 41 40 40 40 41 41 41 41 40 40 40 40 40 40 39 39 39 39 40 41 41 40 42 43 41 39 41 42 43 41 41 41 42 44 45 46 39 30 30 33 34 35 36 34 31 31 34 34 33 35 37 38 39
40 40 40 40 40 41 41 41 41 40 40 41 43 44 44 44 43 43 43 42 43 42 43 44 44 46 46 43 41 42 43 44 43 42 42 41 41 41 41 42 41 42 42 41 41 40 41 41 40 40 40 39 39 40 42 41 41 44 46 43 40 41 43 44 45 44 44 44 46 48 48 42 36 33 32 34 36 37 35 33 32 34 35 35 35 37 39 39
41 41 41 41 41 41 42 42 41 41 40 41 43 44 45 46 45 45 44 44 44 44 45 45 44 46 45 42 42 42 42 43 43 42 41 41 41 41 42 42 42 42 42 42 42 41 42 42 41 41 40 39 38 39 42 42 42 44 45 45 44 43 43 43 46 47 45 47 49 50 50 45 39 36 33 34 37 37 35 33 34 35 36 37 37 38 39 39
43 43 43 43 43 43 43 44 43 42 42 42 43 44 45 47 47 46 46 46 46 46 47 47 45 47 46 42 42 43 42 42 42 41 40 40 40 41 41 42 42 42 43 42 42 41 42 43 42 40 38 37 38 40 42 42 43 44 44 45 45 46 44 42 46 48 46 49 51 50 52 48 42 38 35 33 36 37 35 33 34 35 35 37 38 38 39 39
44 44 45 45 45 46 46 46 46 45 45 44 45 46 47 47 47 47 47 47 48 48 49 49 48 47 46 44 43 44 43 42 41 40 39 39 40 41 41 42 42 42 42 41 43 42 42 45 43 38 35 37 40 41 42 43 44 44 44 45 45 46 45 42 46 48 47 51 52 49 52 49 43 40 36 33 35 36 34 33 33 34 35 36 38 39 39 38
45 46 46 47 47 48 48 48 48 48 48 47 47 48 49 49 48 49 48 48 48 50 51 51 51 50 47 46 45 45 44 43 41 39 38 39 40 41 41 41 41 42 40 40 43 42 43 46 41 34 35 38 40 42 42 43 43 44 44 45 45 45 43 43 46 46 47 52 52 49 52 49 43 40 37 34 35 35 33 34 34 33 35 37 37 37 37 37
48 48 49 49 49 50 49 50 50 50 50 49 49 49 50 50 50 50 50 50 48 48 51 53 53 52 50 49 48 46 47 45 41 39 39 40 39 40 41 41 41 42 42 41 42 43 45 44 36 33 36 38 39 41 41 42 42 43 43 44 45 43 42 45 46 45 47 51 51 50 52 49 42 40 37 33 35 36 32 31 33 33 34 36 35 35 36 37
51 51 51 52 52 52 51 52 52 51 52 51 51 51 51 51 52 52 53 54 51 47 48 51 53 54 53 51 50 49 49 45 42 40 39 40 40 40 43 42 41 44 44 42 42 45 47 42 34 34 36 37 39 40 40 41 42 43 43 44 44 41 42 46 46 45 46 49 51 50 53 50 42 40 38 32 32 34 32 31 32 31 32 34 34 35 37 37
54 53 54 54 54 54 53 53 53 53 53 53 53 53 53 53 53 53 54 56 56 50 46 48 51 53 53 52 52 52 50 46 45 42 39 41 41 42 44 44 44 47 46 43 45 48 48 43 38 37 38 38 41 41 39 41 43 44 43 43 42 41 43 47 47 46 47 49 49 49 54 52 43 40 37 31 30 31 31 33 33 30 30 33 34 36 38 38
55 54 54 54 55 55 54 54 54 55 55 54 54 54 54 55 54 55 55 58 61 55 48 48 50 51 51 51 51 51 51 50 47 43 41 42 43 44 46 47 48 49 47 45 48 52 50 46 42 42 41 41 43 43 39 40 43 46 45 41 41 43 45 47 47 47 49 50 49 47 52 53 44 40 36 30 30 30 29 32 33 32 33 34 33 35 38 38
52 52 53 53 55 55 56 55 55 55 56 55 56 56 56 56 56 56 57 60 65 61 53 52 52 49 47 47 47 48 51 51 47 44 43 43 44 45 48 49 49 49 49 48 51 55 52 46 44 44 44 43 45 44 41 40 45 49 47 42 42 44 46 47 48 49 50 51 51 50 51 51 46 42 39 35 33 32 30 30 31 33 37 39 37 36 37 35
50 51 52 52 53 55 55 56 55 56 56 56 57 57 57 57 57 57 58 62 68 67 61 57 54 51 47 45 45 45 46 46 43 43 44 45 46 47 49 51 50 50 50 51 54 56 51 47 46 46 46 47 47 45 43 43 47 50 48 45 45 46 47 48 49 51 52 52 54 54 51 51 50 46 44 44 41 38 35 32 30 30 35 40 40 37 35 33
50 50 50 51 52 54 54 55 55 55 55 56 56 57 58 58 58 58 59 65 71 71 67 62 57 52 49 46 44 43 43 41 40 41 41 43 46 48 49 50 51 51 50 52 56 55 52 49 48 48 48 49 48 46 45 45 47 48 48 48 48 48 49 50 51 53 53 54 56 55 51 52 54 51 51 52 47 42 38 34 33 32 33 38 40 37 32 30
50 49 49 49 51 52 53 53 54 55 55 55 56 57 57 58 59 58 60 68 72 71 70 65 59 55 52 48 45 44 43 42 42 41 40 41 44 47 49 50 52 53 52 53 56 55 54 52 50 51 51 49 46 45 45 45 46 48 49 50 49 49 49 50 52 53 53 56 56 53 50 53 56 55 55 56 50 46 42 38 37 35 32 33 38 40 34 29
50 50 49 49 50 51 52 52 53 54 55 55 56 56 57 58 58 59 65 70 71 70 68 66 63 59 55 52 50 48 46 44 43 42 42 42 42 44 47 48 51 54 54 55 56 55 54 54 53 52 49 48 47 46 46 46 47 48 49 50 50 50 51 51 54 53 55 57 55 51 50 54 59 58 57 57 55 52 48 43 40 35 30 29 34 42 39 32
52 51 50 49 50 51 51 52 53 54 55 56 56 57 58 58 58 63 70 70 68 67 66 66 65 62 58 55 53 52 50 48 45 43 43 43 43 45 46 46 48 51 54 57 57 55 54 54 53 51 49 49 49 48 47 48 49 49 50 51 51 52 53 54 56 56 57 57 55 54 54 56 61 60 58 58 57 56 53 49 42 35 31 29 33 40 40 36
55 54 53 51 51 51 52 52 53 54 55 56 57 58 58 60 62 67 70 68 67 66 63 63 64 63 62 60 56 54 52 51 49 46 45 45 46 47 47 47 47 49 52 54 55 55 55 55 53 52 51 50 49 49 50 49 49 50 50 51 51 53 56 57 59 58 57 58 57 57 60 62 64 60 58 58 56 57 57 52 44 36 32 31 34 40 40 37
59 58 57 55 53 54 54 54 54 55 56 57 59 59 59 61 66 67 67 66 66 65 63 63 63 63 63 62 60 58 56 55 53 51 50 48 48 49 48 48 48 48 49 50 52 54 57 57 55 53 51 49 49 49 50 50 50 50 50 51 51 53 57 58 59 59 59 60 61 62 65 66 63 59 57 57 55 57 58 52 43 37 35 35 37 37 38 40
61 61 61 59 57 57 57 56 56 57 59 60 61 61 62 65 66 65 65 63 63 64 63 63 63 63 63 63 63 61 60 59 56 55 53 51 51 51 49 49 48 48 48 49 51 53 55 56 55 54 52 51 50 48 49 50 51 52 52 52 54 55 56 56 57 59 62 64 64 67 69 66 63 60 58 58 58 59 58 51 44 41 40 39 37 35 38 44
61 61 62 61 60 60 59 59 59 60 62 63 64 65 66 65 63 62 63 63 63 63 63 63 63 63 63 63 63 62 62 61 59 58 58 56 55 53 52 51 50 50 50 50 51 50 52 53 54 54 52 52 52 49 49 51 53 56 55 56 58 56 54 55 58 61 64 67 67 69 70 65 62 62 60 61 62 61 60 55 49 46 43 40 37 37 40 43
61 61 61 60 59 60 62 63 64 64 65 67 70 71 66 62 62 63 64 66 66 65 65 65 64 63 63 63 63 61 60 60 60 61 61 60 58 56 55 53 50 51 52 52 52 51 52 54 53 53 53 53 53 52 52 53 56 59 59 59 59 56 55 57 60 62 64 68 68 67 67 63 61 61 60 60 62 62 61 58 53 49 44 41 41 40 40 42
63 62 61 59 56 59 62 64 66 67 68 70 73 71 64 61 63 64 65 66 67 68 68 68 65 64 65 66 66 64 63 64 63 63 63 62 60 57 55 53 50 50 51 52 53 53 54 57 56 56 56 54 53 53 53 56 59 60 61 61 60 60 60 60 61 63 64 67 67 65 65 64 62 62 61 61 63 63 61 57 53 49 45 44 44 43 44 46
66 67 66 61 59 60 63 65 68 70 73 76 76 71 65 63 62 63 65 65 67 69 69 68 68 68 68 68 69 69 69 68 66 65 64 63 62 58 56 55 52 49 48 48 51 52 54 57 57 58 59 57 54 55 57 59 60 59 59 59 60 61 62 61 62 63 63 66 68 66 65 64 63 62 62 62 65 67 63 56 51 47 45 46 46 46 48 47
68 70 70 66 65 66 66 68 70 72 76 79 77 72 68 66 64 66 67 65 66 68 68 69 71 72 71 70 70 71 70 68 65 65 65 64 64 61 58 57 54 50 47 47 49 50 51 55 56 56 58 59 57 58 60 59 58 57 58 59 60 61 63 64 64 63 63 65 68 66 66 66 64 62 62 64 66 68 65 57 51 48 48 50 51 51 50 47
68 71 71 67 68 70 69 71 73 76 79 80 77 73 71 70 70 69 68 66 67 69 70 71 73 75 74 73 72 71 70 70 69 69 69 67 65 65 64 61 58 55 53 51 51 52 53 57 58 56 57 59 59 57 57 56 57 59 60 61 62 63 64 65 64 63 64 66 65 65 68 69 68 66 66 67 66 68 65 57 52 52 52 53 54 54 51 49
70 72 71 67 69 71 69 71 74 76 79 79 77 76 75 74 73 70 68 68 69 71 72 72 74 76 76 76 76 74 74 76 74 73 73 70 68 69 69 67 65 63 61 59 58 57 58 59 59 59 60 61 59 55 54 56 58 61 63 63 63 63 63 66 67 65 65 66 64 65 71 73 70 69 69 69 68 68 67 61 54 51 51 52 53 53 51 49
73 75 73 69 68 69 70 73 75 74 75 72 70 71 71 72 73 73 73 73 74 75 75 76 76 77 78 78 78 78 79 80 78 77 76 73 71 72 72 72 71 70 67 66 64 62 61 61 61 63 65 64 61 59 59 61 62 64 66 65 64 64 65 67 68 66 65 67 66 69 77 77 71 69 70 71 69 66 67 65 57 50 48 49 49 50 50 49
74 75 75 72 71 71 73 78 79 79 78 74 70 69 70 74 76 77 76 76 75 76 77 79 79 78 79 78 77 79 82 82 81 80 78 77 75 74 73 73 73 73 70 69 67 64 61 62 62 64 64 64 65 67 68 69 70 71 70 68 67 68 68 67 68 68 68 70 71 75 82 80 72 71 71 70 66 63 65 65 57 51 50 49 48 49 50 52
75 75 75 75 76 77 80 83 83 82 83 82 80 78 76 77 80 79 74 70 69 70 73 76 77 78 79 76 75 76 77 79 81 81 81 81 79 76 75 74 73 72 70 67 65 62 60 61 61 61 63 64 67 71 73 74 75 74 71 69 69 69 69 69 71 71 73 75 76 79 84 81 74 72 70 66 63 62 61 60 55 53 52 53 53 54 55 57
81 79 78 77 78 82 85 87 86 84 83 84 85 84 81 81 81 79 74 69 65 65 67 71 72 74 75 75 75 75 74 75 78 80 80 80 79 77 75 73 71 69 67 65 63 63 62 61 61 62 64 67 69 71 71 71 72 72 71 70 71 70 72 73 73 74 78 80 79 80 83 82 75 71 68 63 60 58 56 55 56 55 54 55 57 58 60 62
83 84 83 81 82 85 86 87 89 89 85 81 82 82 80 80 79 75 72 69 66 64 65 66 66 67 68 70 72 73 72 72 73 74 76 75 75 75 74 73 71 69 67 65 63 63 64 64 66 69 72 73 73 70 68 68 71 73 72 72 72 72 72 73 75 78 80 81 81 79 79 80 75 68 65 61 57 55 55 56 57 56 55 56 59 61 63 64
85 86 86 84 85 88 89 89 90 92 88 84 83 80 75 74 74 73 72 71 67 64 62 62 62 62 63 64 66 68 68 67 67 69 70 71 70 70 70 69 68 67 65 63 63 64 67 69 70 72 74 75 73 71 68 68 72 74 74 74 74 74 74 74 77 79 78 79 81 76 73 76 74 67 63 60 57 58 59 59 58 56 56 59 63 65 65 64
85 87 87 87 88 90 92 91 92 95 95 93 92 88 81 77 75 74 75 73 71 67 65 63 61 60 61 60 62 66 67 68 70 71 71 70 68 66 64 63 62 62 61 61 61 63 67 70 68 68 70 70 69 68 66 66 69 72 74 75 75 74 74 74 77 77 75 78 80 75 72 75 75 69 66 63 61 61 60 58 57 58 59 62 66 67 66 64
85 86 87 88 90 91 93 92 92 97 101 102 101 98 93 87 82 79 76 76 77 76 74 73 68 63 61 61 62 64 65 66 70 73 74 73 70 67 65 63 62 61 60 61 62 63 68 71 68 68 71 70 69 68 66 67 68 70 71 72 73 73 72 72 75 74 74 79 80 77 77 78 75 70 68 65 62 60 59 58 60 62 64 64 65 66 64 62
85 86 87 88 90 92 92 92 93 97 101 104 106 106 103 98 93 87 83 84 86 84 83 82 77 71 69 68 68 68 66 65 67 70 72 73 71 69 71 71 69 67 66 65 65 65 67 69 68 68 72 74 72 71 70 69 70 71 70 70 71 72 71 73 75 75 77 81 79 77 80 80 74 68 66 64 61 60 60 59 58 59 59 60 61 62 61 58
85 86 88 90 91 92 92 92 93 96 98 102 105 107 108 106 103 99 96 97 97 94 92 90 85 82 81 79 76 72 68 67 68 69 70 72 71 69 71 74 74 73 73 71 69 69 69 70 69 70 75 76 73 72 74 75 75 75 75 75 76 76 77 77 77 76 77 79 78 78 80 79 71 65 62 61 61 61 59 54 52 53 54 56 58 58 57 56
84 86 88 91 93 93 92 92 93 95 98 99 101 103 106 107 107 106 106 106 106 103 101 97 94 93 93 91 86 79 74 75 77 77 77 77 76 75 76 77 77 77 77 76 75 75 75 74 72 74 80 82 78 76 75 74 73 75 79 81 78 74 74 74 74 74 74 74 76 76 75 71 64 59 58 59 59 59 56 53 54 56 57 58 59 58 58 60
Wind_Direction
260 261 262 263 263 264 264 265 266 267 268 269 270 271 273 275 277 279 280 282 283 285 287 288 290 291 292 292 293 293 294 294 296 298 301 304 305 306 307 308 309 311 311 310 307 305 305 306 310 314 316 319 320 321 322 322 323 322 322 321 319 317 315 314 313 313 313 312 313 313 314 316 316 314 311 311 309 306 304 303 303 298 296 298 296 293 292 291
257 258 259 260 261 262 264 265 266 268 269 270 272 273 273 274 275 278 279 280 281 282 283 284 285 286 287 288 289 290 290 290 290 291 293 295 297 299 300 301 303 305 306 307 306 305 304 302 302 304 306 309 311 314 317 319 319 319 320 319 318 317 316 315 314 312 312 311 310 310 311 313 316 315 314 314 311 309 307 303 302 298 297 299 296 293 293 291
257 257 258 258 259 260 261 263 265 266 268 270 271 273 275 275 276 277 278 279 279 280 280 280 281 281 281 282 283 285 285 286 286 286 287 288 290 291 293 295 297 300 301 302 303 304 304 302 300 299 299 300 303 306 309 312 314 316 317 317 317 315 315 314 313 313 312 311 309 308 308 309 311 312 312 313 311 311 309 306 304 300 299 298 295 294 293 292
258 258 259 259 259 260 260 261 262 263 264 266 267 269 270 272 273 274 275 276 276 276 276 277 277 277 277 278 278 279 280 281 282 283 284 284 284 285 287 289 291 293 295 297 298 300 301 302 302 300 299 299 300 301 304 306 308 310 311 313 314 313 313 313 312 313 312 312 310 310 308 307 308 308 308 308 309 311 310 309 309 305 304 303 300 298 296 294
258 259 259 260 260 261 261 261 262 262 263 264 264 265 266 267 268 269 270 271 273 273 274 274 274 274 274 275 275 276 276 277 278 280 280 280 281 281 282 283 286 288 289 292 293 295 297 298 299 300 300 301 301 301 302 303 303 304 305 307 309 310 311 310 310 311 311 311 311 311 310 308 309 308 306 305 306 308 307 307 309 308 307 307 306 304 303 300
258 259 260 260 261 261 262 262 263 263 264 265 266 266 266 266 267 267 268 268 270 271 272 273 273 273 273 273 274 274 274 275 276 276 277 278 279 279 280 281 283 283 285 287 288 290 292 294 295 296 297 298 299 300 300 301 300 300 301 302 304 306 307 308 308 308 309 309 309 311 310 310 310 309 306 303 306 308 305 305 306 306 307 307 307 306 305 303
257 258 259 260 261 262 262 263 263 264 265 266 267 268 268 268 269 269 269 270 270 270 272 272 273 273 273 273 273 273 274 274 275 275 275 276 277 279 279 280 281 281 282 283 284 286 288 290 291 292 293 294 296 297 298 298 299 299 299 300 301 302 303 305 306 306 307 306 306 308 308 309 309 309 306 303 307 309 304 305 306 306 307 308 308 307 305 304
258 258 259 260 260 261 262 263 264 264 265 266 267 268 269 270 270 271 271 271 272 272 273 273 274 274 274 274 274 274 274 274 275 275 275 275 276 277 278 279 279 280 280 281 282 283 284 286 288 289 290 291 292 294 295 295 296 298 299 300 300 301 301 302 303 304 306 305 304 304 305 306 307 307 303 301 306 308 303 305 306 306 308 309 309 308 306 306
260 260 260 260 260 261 262 263 263 264 265 266 267 268 269 269 270 271 271 271 272 272 273 273 274 274 275 275 275 275 275 275 275 275 275 275 275 275 276 277 278 279 280 281 281 282 283 284 286 287 287 289 290 291 293 294 294 296 297 298 299 298 299 301 301 302 303 303 303 302 302 303 306 306 298 298 305 306 303 305 305 306 307 308 308 307 306 306
262 263 263 263 263 262 263 263 263 264 265 266 266 267 268 269 270 270 270 271 271 271 272 272 272 273 273 274 275 275 275 276 276 276 276 276 276 276 276 277 278 279 280 281 282 283 284 284 285 285 286 287 288 290 291 292 293 294 294 295 295 296 297 299 299 300 300 300 300 299 300 302 305 305 296 296 304 304 305 307 305 306 306 307 307 306 306 305
262 263 264 264 265 265 265 265 265 265 265 266 266 267 267 269 269 270 270 271 271 271 271 271 271 271 271 272 273 273 274 275 275 276 277 277 277 277 278 278 278 279 280 281 282 283 284 284 285 285 285 286 287 288 289 290 292 292 293 292 292 293 295 297 297 298 297 297 297 295 296 300 304 305 298 298 303 303 307 308 306 306 306 306 306 305 304 303
261 262 263 264 265 266 266 266 266 266 266 266 266 266 266 267 269 269 270 270 271 271 271 271 271 271 271 271 272 273 273 274 274 275 276 276 277 278 279 279 279 280 280 280 281 282 283 283 284 284 285 285 286 287 288 289 289 290 291 290 290 291 293 295 296 296 295 295 295 292 291 296 300 301 300 301 301 302 307 308 306 306 307 307 305 304 303 301
261 261 262 263 264 265 266 267 267 267 267 267 267 267 266 267 267 268 269 270 270 271 271 272 272 271 271 272 273 274 274 275 275 275 275 276 277 277 278 279 279 280 280 280 280 280 281 282 283 283 284 285 285 286 286 287 288 289 288 287 289 290 290 292 293 294 294 294 294 291 289 291 293 292 296 299 298 300 304 304 304 304 306 306 305 304 302 300
262 262 262 263 264 264 265 266 267 268 268 268 268 268 267 267 267 267 268 269 270 270 271 271 272 272 272 272 273 274 275 276 276 276 276 277 277 278 279 279 279 279 279 279 279 279 280 281 281 282 283 283 284 285 286 286 287 287 286 286 288 289 289 290 291 292 293 293 293 291 289 290 289 288 291 294 295 297 299 300 301 301 303 304 304 303 301 301
263 263 263 264 264 265 266 266 267 268 269 269 270 269 269 268 267 267 268 268 269 270 271 271 272 272 272 272 274 275 275 276 276 276 277 278 279 279 279 279 279 279 279 279 279 279 280 280 281 281 281 282 283 285 286 286 286 285 285 286 288 288 288 288 288 290 292 292 291 290 289 289 288 285 285 287 290 293 294 296 298 297 299 302 301 301 301 302
263 263 264 264 265 265 266 266 267 268 269 270 271 271 271 270 269 269 268 269 269 270 271 271 272 272 272 273 273 274 274 275 276 277 278 278 279 279 279 279 279 280 280 281 280 280 280 280 281 281 281 281 283 285 286 286 286 284 283 285 287 288 288 287 287 288 290 290 290 289 288 288 289 285 282 283 285 289 291 293 294 294 296 297 297 298 299 300
263 263 264 264 264 265 265 266 267 268 269 270 271 272 272 272 271 271 270 270 270 270 271 271 272 272 273 274 273 273 273 274 275 276 277 277 278 278 278 279 280 281 281 282 282 282 282 281 281 281 281 282 284 286 285 284 285 284 284 285 285 285 286 288 288 287 288 289 287 286 285 287 288 285 283 282 282 284 287 290 291 292 294 294 294 295 296 297
264 264 265 265 265 265 265 266 267 267 268 270 271 272 273 273 272 272 272 271 271 271 271 271 272 272 273 274 274 272 272 273 274 275 276 277 278 278 278 279 280 281 281 282 282 283 282 281 281 280 281 284 285 284 282 283 283 283 285 286 286 284 284 286 287 286 287 287 285 285 285 285 285 284 283 282 281 281 283 287 288 289 292 293 293 293 294 296
265 266 266 266 266 266 266 267 267 268 268 269 271 272 273 273 273 273 272 272 272 272 271 271 271 272 273 274 274 273 272 272 273 274 275 277 277 278 279 280 280 281 281 282 282 281 282 281 279 280 285 287 283 280 280 282 282 282 283 284 285 285 284 286 286 285 286 284 283 285 285 285 285 284 283 281 280 281 282 284 284 286 289 291 292 292 293 295
265 266 267 267 267 267 267 267 267 268 268 269 270 272 273 273 275 275 273 272 271 270 270 271 270 270 272 273 273 272 272 272 273 274 275 276 277 278 279 280 281 281 282 283 282 281 281 279 279 284 288 285 281 280 280 280 280 281 282 282 282 283 284 285 284 284 285 283 282 284 284 284 285 284 284 282 280 281 283 283 282 285 288 288 290 291 292 293
266 267 267 267 267 267 267 267 267 268 268 268 269 270 272 273 274 275 275 273 271 270 270 270 270 270 270 271 271 271 272 271 272 275 276 276 276 277 279 280 281 281 282 282 281 282 279 278 283 288 285 281 280 280 280 280 280 280 281 281 281 282 284 284 282 282 282 281 282 283 283 283 285 285 285 283 282 281 282 283 285 286 286 287 289 290 291 291
268 268 267 267 266 266 267 267 267 267 268 267 268 268 270 272 273 275 275 274 272 271 270 269 270 270 270 269 269 270 270 270 272 273 274 275 276 277 278 278 280 281 280 279 281 282 279 280 287 287 281 280 279 279 280 281 281 281 282 281 281 283 285 283 281 281 281 281 283 283 282 283 285 285 284 283 284 283 283 284 286 286 287 289 289 289 289 288
269 269 268 267 266 266 266 266 267 267 268 268 268 268 269 270 272 274 275 275 273 270 270 270 270 269 269 269 269 268 269 271 272 272 273 274 275 276 276 277 278 278 277 279 280 280 279 282 286 283 280 280 279 279 281 282 282 282 281 281 282 285 285 282 281 281 281 281 282 284 283 283 284 284 283 284 283 284 288 288 285 286 288 289 290 289 287 286
269 269 267 266 266 265 265 265 266 267 267 268 269 269 270 270 271 273 274 275 274 271 270 271 270 269 268 268 268 269 270 271 271 271 272 272 273 273 274 276 275 274 276 279 278 277 278 281 283 281 280 280 280 279 280 281 281 280 280 281 285 286 284 282 283 284 283 282 283 286 286 284 285 284 283 284 282 283 288 287 285 287 288 288 289 288 287 286
268 268 267 266 265 265 265 265 266 266 267 267 268 269 270 270 271 272 273 274 274 272 270 269 269 270 270 269 269 271 272 271 271 272 271 270 271 271 272 272 272 273 275 276 276 275 277 279 282 281 280 279 278 278 278 280 282 281 280 282 284 284 282 283 285 285 285 285 285 287 287 287 288 287 286 284 282 283 283 284 290 296 296 293 291 289 288 287
266 267 267 266 266 265 265 265 266 266 267 267 268 268 269 270 271 272 273 274 274 273 270 267 267 269 270 272 274 273 273 273 273 273 272 270 269 269 269 269 270 272 274 273 273 274 276 279 280 279 278 277 276 277 279 280 281 281 281 283 283 282 282 283 285 285 285 287 287 287 287 289 291 291 291 290 286 283 281 283 293 299 299 298 297 294 291 290
266 266 267 267 266 266 265 266 266 266 268 268 268 268 269 270 271 272 273 274 274 274 272 268 268 269 270 272 274 275 276 278 278 274 271 269 268 267 267 269 270 270 272 272 272 272 275 277 277 276 276 275 275 278 280 279 278 279 281 283 281 281 281 282 283 284 285 286 286 285 286 291 294 295 296 293 288 286 286 290 295 297 297 296 296 295 292 291
265 265 266 267 267 266 266 266 266 266 267 268 268 268 268 269 270 271 272 272 273 273 273 272 273 273 273 273 274 276 278 280 279 275 272 269 267 266 266 267 269 268 269 270 271 273 274 274 274 274 274 274 276 278 278 277 277 278 280 280 280 280 280 281 282 282 283 284 283 284 288 290 293 296 294 290 288 289 291 294 296 299 299 295 293 292 290 289
264 265 265 265 266 267 266 266 266 267 267 268 268 268 268 268 268 269 269 269 270 273 275 277 278 278 279 279 278 278 277 276 276 275 274 271 269 268 266 266 267 268 268 268 269 271 272 273 273 272 272 274 275 276 276 276 275 276 277 278 279 279 280 280 280 280 281 280 282 288 292 292 292 292 289 288 291 292 293 295 297 301 301 295 293 294 292 290
263 263 264 264 265 266 266 266 267 267 267 268 267 268 268 268 268 268 266 266 268 272 276 279 280 281 282 283 282 280 278 276 275 274 273 273 271 270 268 267 266 267 267 266 267 268 270 271 271 271 272 274 273 273 273 273 274 275 276 277 278 279 279 278 277 277 277 279 285 290 291 290 289 289 289 291 294 295 296 297 298 302 300 293 291 292 294 295
262 262 262 263 263 264 265 265 266 267 267 267 268 268 268 267 267 265 264 266 269 272 276 279 282 284 284 283 282 281 281 279 276 274 273 272 271 270 269 269 267 267 266 266 267 268 269 269 270 271 271 271 271 272 271 272 273 274 275 276 277 277 276 275 275 274 276 281 288 289 287 286 284 285 289 292 294 297 298 297 298 302 300 293 289 290 293 295
263 263 262 262 262 263 263 264 265 266 267 267 267 267 267 268 265 263 265 269 271 273 276 279 281 284 284 283 282 281 281 280 278 276 273 272 270 269 269 270 270 270 270 270 269 269 268 268 268 269 268 269 271 272 272 272 272 273 273 273 273 274 274 274 274 275 277 282 285 285 284 283 282 284 287 289 293 295 294 294 299 304 300 294 293 294 296 295
263 263 263 262 261 262 262 263 264 265 266 266 266 266 266 266 265 265 267 269 272 276 278 279 280 281 283 284 283 282 281 279 278 277 275 274 271 269 269 270 272 273 274 274 273 271 268 267 266 267 268 270 271 271 271 271 270 270 270 269 269 270 271 272 275 279 281 281 282 282 281 281 283 286 288 289 290 288 288 292 298 302 300 298 297 297 296 293
264 264 264 263 262 262 262 263 264 265 266 265 264 264 263 263 265 268 270 271 273 275 277 278 280 281 282 282 282 282 281 280 278 278 277 276 273 271 269 268 270 272 273 273 273 273 273 270 268 268 268 268 269 269 270 269 269 267 267 267 267 267 269 272 277 280 279 280 280 280 280 282 286 289 290 290 288 286 288 293 298 300 300 301 300 297 292 289
266 266 266 265 264 263 262 263 263 263 264 264 264 263 262 265 268 269 271 272 272 273 275 277 278 278 278 278 278 280 281 281 281 280 278 275 273 271 268 266 268 270 271 272 272 274 275 272 270 270 269 267 266 266 267 268 268 267 267 266 267 270 272 274 275 276 277 278 279 279 280 284 287 289 289 288 287 289 291 295 297 299 301 301 299 295 290 287
266 266 266 267 268 265 263 263 264 264 263 264 263 262 265 270 271 269 269 271 271 272 273 274 274 275 276 276 276 277 279 280 280 280 278 277 275 273 270 268 269 270 270 271 271 272 273 270 268 269 269 267 266 265 265 266 266 267 267 268 270 273 273 273 273 274 275 277 277 280 282 285 287 287 286 286 288 290 292 295 297 300 304 302 297 293 290 287
265 265 266 267 268 267 264 262 263 264 264 263 263 264 268 271 270 270 270 271 271 271 271 272 273 274 275 276 277 276 276 276 277 278 279 279 278 276 274 272 271 271 270 271 271 270 271 269 267 268 269 268 268 267 265 265 264 265 267 269 271 272 271 272 273 274 275 276 277 278 281 283 285 285 286 289 290 290 291 293 297 303 305 301 296 293 290 288
266 268 268 267 266 267 267 264 263 263 263 263 263 264 265 266 267 270 271 271 270 269 270 271 272 272 272 274 275 275 274 274 275 277 278 278 277 276 275 274 274 273 272 271 270 270 270 269 267 267 268 268 267 267 266 264 265 266 269 270 271 271 271 271 272 273 274 276 277 278 279 281 281 282 286 289 289 289 290 293 299 304 302 297 295 292 288 287
263 265 266 267 267 267 267 267 266 264 262 262 263 263 263 264 266 268 269 269 269 268 269 270 270 270 270 270 271 272 273 273 274 275 276 276 276 275 274 273 273 273 272 271 271 273 272 271 269 268 269 268 267 266 266 266 269 270 270 270 269 270 270 270 271 273 274 274 276 278 280 280 280 282 283 283 284 286 289 295 302 302 299 296 293 290 287 285
257 259 261 262 264 266 267 266 265 263 263 264 265 264 263 264 265 266 267 266 266 266 268 269 269 269 269 269 269 270 271 271 272 274 274 274 274 273 273 273 272 273 273 271 271 272 272 272 273 273 271 269 268 269 270 271 271 270 269 269 269 269 270 271 272 273 273 273 275 278 280 280 280 281 281 281 283 286 291 297 300 299 297 295 291 289 288 285
253 255 258 258 260 263 263 261 260 260 262 263 265 265 264 264 265 266 266 265 264 265 266 267 268 269 269 269 268 268 269 269 271 272 272 271 271 271 272 272 272 272 272 272 271 272 272 272 272 271 270 270 271 273 273 271 269 269 269 269 270 271 272 272 272 273 273 274 277 279 278 277 279 280 282 284 287 291 295 297 297 296 294 291 289 288 287 286
253 252 253 254 256 257 256 255 255 256 256 257 260 262 262 263 263 264 265 265 264 264 263 264 265 267 268 267 267 267 268 268 269 269 269 269 269 269 270 271 272 273 273 273 273 273 272 272 271 271 271 271 271 270 269 268 268 267 267 267 269 270 270 271 272 274 275 276 277 276 274 274 279 281 283 286 290 293 295 295 295 296 293 289 287 287 286 286
254 253 252 250 250 253 254 253 252 254 255 256 257 256 258 261 263 264 265 265 264 262 262 263 264 265 266 266 266 266 266 266 267 267 267 267 267 268 268 269 271 272 273 274 275 275 274 272 271 272 271 270 269 268 268 267 267 266 268 270 271 271 271 271 272 274 274 272 273 271 270 273 280 282 283 286 290 291 291 291 293 294 292 290 289 289 288 285
255 254 253 251 249 249 253 254 254 254 256 257 256 256 256 258 261 262 261 261 261 261 261 262 262 262 262 263 263 264 264 265 265 265 265 266 266 267 267 268 269 270 271 273 274 273 272 271 271 271 270 269 268 269 269 270 270 271 273 273 272 272 272 271 272 273 271 270 270 268 268 274 281 282 283 286 288 287 286 288 289 290 290 290 290 290 287 285
256 255 253 252 250 249 250 254 256 256 255 255 255 255 255 255 256 256 255 254 256 258 259 260 259 259 260 261 262 262 263 263 264 265 265 266 266 266 266 267 267 269 270 271 271 270 269 269 270 269 269 269 269 270 272 274 274 273 272 271 270 270 269 270 270 269 270 272 271 268 271 279 283 283 284 285 285 284 284 285 287 287 288 288 287 286 287 287
258 257 255 252 251 251 250 250 253 254 253 253 253 252 251 252 251 250 251 252 252 253 255 257 257 257 258 259 261 262 262 263 264 265 264 265 266 266 266 266 267 268 269 268 268 268 268 268 269 270 271 271 271 272 273 273 272 271 271 270 269 268 268 268 267 267 271 274 272 271 276 281 282 282 284 284 283 284 285 286 287 286 285 284 284 286 287 288
257 257 257 255 253 253 251 249 250 252 251 250 251 250 248 248 248 246 248 250 251 251 253 254 254 254 253 254 257 259 260 261 262 262 263 263 265 267 268 268 269 269 268 267 266 267 268 269 270 271 272 272 273 273 272 271 271 271 271 269 268 268 267 266 267 271 274 273 271 274 280 281 282 284 285 284 285 287 287 285 283 282 281 284 286 286 285 284
257 257 257 257 256 255 254 252 250 251 252 253 254 253 249 247 247 245 246 248 249 251 252 252 250 249 249 250 252 254 255 257 258 260 262 264 265 267 268 267 266 266 266 265 264 266 269 269 269 270 270 270 270 270 269 268 268 268 269 269 269 268 268 269 271 273 272 270 273 279 282 281 282 285 285 286 288 286 283 280 279 280 283 285 285 282 281 280
257 257 257 257 256 255 255 255 253 252 254 256 257 257 254 252 250 248 247 248 249 250 253 255 253 251 251 250 253 256 257 257 258 258 261 263 263 264 263 261 260 261 263 264 265 267 269 271 271 271 271 270 269 269 268 267 266 265 265 266 266 267 269 271 271 271 272 274 279 283 283 281 282 283 285 287 287 283 280 280 282 285 285 283 280 278 278 277
258 258 257 256 256 255 256 255 254 254 254 256 258 259 258 256 255 253 252 253 254 254 255 258 258 257 258 256 257 260 261 260 260 259 260 263 264 263 263 261 260 260 262 265 268 269 271 273 273 273 273 271 270 270 270 269 269 268 266 264 264 265 268 270 271 274 277 279 281 281 279 279 281 283 285 285 284 282 282 284 284 283 280 278 277 278 280 281
258 258 257 257 256 255 256 255 255 255 255 255 257 258 259 259 258 258 258 258 260 261 260 260 260 260 262 263 263 263 263 263 264 262 261 263 265 266 266 265 263 263 263 264 266 268 270 272 273 273 273 272 272 273 273 273 272 268 266 267 268 270 273 273 275 277 277 276 276 275 275 277 281 283 283 282 283 284 285 284 281 278 276 277 278 282 286 288
257 256 257 258 257 256 256 256 255 256 255 256 257 257 259 260 260 262 263 262 262 263 264 263 263 263 264 264 264 265 266 267 269 268 266 266 266 267 267 267 266 265 265 265 266 267 269 272 274 275 274 274 274 274 274 272 267 263 267 272 273 273 273 272 272 273 272 272 272 271 273 277 280 281 280 281 284 285 284 283 281 280 281 282 285 288 289 288
Height
5894 5894 5894 5895 5895 5895 5895 5895 5895 5895 5895 5895 5895 5895 5894 5894 5894 5894 5893 5893 5893 5893 5892 5892 5891 5891 5890 5890 5889 5889 5888 5888 5888 5887 5886 5886 5885 5885 5884 5884 5883 5882 5881 5881 5880 5879 5878 5877 5876 5875 5874 5873 5872 5871 5870 5868 5867 5867 5866 5865 5864 5863 5862 5862 5861 5860 5859 5858 5857 5856 5855 5854 5854 5852 5851 5851 5850 5849 5848 5847 5846 5845 5844 5844 5844 5843 5842 5841
5892 5892 5893 5893 5893 5893 5893 5893 5893 5893 5893 5893 5893 5893 5893 5893 5892 5892 5892 5892 5892 5891 5891 5891 5890 5890 5889 5889 5888 5888 5887 5887 5886 5886 5885 5885 5884 5883 5883 5882 5882 5881 5880 5879 5878 5878 5877 5876 5875 5874 5873 5872 5871 5870 5869 5868 5867 5866 5865 5864 5863 5862 5861 5860 5859 5859 5858 5857 5856 5855 5854 5853 5852 5851 5850 5849 5848 5848 5847 5846 5845 5844 5843 5843 5842 5841 5841 5840
5890 5890 5890 5890 5891 5891 5891 5891 5891 5891 5891 5892 5891 5891 5891 5891 5891 5891 5890 5890 5890 5890 5889 5889 5889 5888 5888 5887 5887 5886 5886 5885 5885 5884 5884 5883 5883 5882 5881 5881 5880 5880 5879 5878 5877 5876 5875 5874 5874 5873 5872 5871 5870 5869 5868 5866 5865 5864 5864 5863 5862 5861 5860 5859 5858 5857 5856 5855 5854 5854 5853 5852 5851 5850 5849 5848 5847 5846 5846 5845 5844 5842 5841 5841 5840 5840 5839 5838
5887 5888 5888 5888 5888 5888 5889 5889 5889 5889 5889 5889 5889 5889 5889 5889 5889 5889 5888 5888 5888 5888 5887 5887 5887 5886 5886 5885 5885 5884 5884 5883 5883 5882 5882 5882 5881 5881 5880 5880 5879 5878 5877 5876 5876 5875 5874 5873 5872 5871 5871 5870 5869 5868 5866 5865 5864 5863 5862 5861 5861 5860 5859 5858 5857 5856 5855 5854 5853 5852 5851 5850 5849 5848 5847 5846 5845 5845 5844 5843 5842 5841 5840 5839 5839 5838 5837 5836
5884 5885 5885 5885 5885 5886 5886 5886 5887 5887 5887 5887 5887 5887 5887 5887 5886 5886 5886 5886 5885 5885 5885 5885 5884 5884 5884 5883 5883 5882 5882 5881 5881 5881 5880 5880 5879 5879 5878 5878 5877 5876 5876 5875 5874 5873 5872 5871 5870 5870 5869 5868 5867 5866 5865 5864 5863 5862 5861 5860 5859 5858 5857 5856 5855 5854 5853 5852 5851 5850 5849 5848 5847 5846 5845 5844 5843 5843 5842 5841 5840 5839 5838 5838 5837 5836 5836 5835
5881 5882 5882 5882 5882 5883 5883 5883 5884 5884 5884 5884 5884 5884 5884 5884 5884 5884 5884 5884 5883 5883 5882 5882 5882 5881 5881 5881 5880 5880 5880 5879 5879 5879 5878 5878 5877 5877 5876 5876 5875 5875 5874 5873 5872 5871 5870 5869 5869 5868 5867 5866 5865 5864 5863 5862 5861 5861 5860 5858 5857 5856 5855 5855 5854 5853 5852 5851 5849 5849 5848 5847 5846 5845 5843 5842 5842 5841 5840 5839 5838 5838 5837 5836 5835 5834 5834 5833
5878 5878 5879 5879 5879 5879 5880 5880 5880 5881 5881 5881 5881 5881 5881 5881 5881 5881 5881 5881 5881 5881 5880 5880 5879 5879 5879 5878 5878 5878 5877 5876 5876 5876 5876 5875 5875 5874 5874 5873 5873 5872 5872 5871 5870 5869 5868 5868 5867 5866 5865 5864 5863 5862 5861 5861 5860 5859 5858 5857 5856 5855 5854 5853 5852 5851 5850 5849 5848 5847 5846 5845 5844 5843 5841 5840 5840 5840 5838 5837 5836 5835 5835 5834 5833 5832 5831 5831
5875 5875 5876 5876 5876 5876 5876 5877 5877 5877 5877 5878 5878 5878 5877 5877 5878 5878 5878 5878 5878 5878 5877 5877 5877 5876 5876 5876 5875 5876 5875 5874 5874 5874 5873 5873 5872 5872 5871 5871 5871 5870 5869 5868 5868 5867 5866 5865 5865 5864 5863 5862 5861 5860 5859 5859 5858 5857 5856 5855 5854 5853 5852 5851 5850 5849 5848 5847 5846 5846 5844 5844 5843 5842 5840 5838 5838 5838 5836 5835 5834 5833 5833 5832 5831 5830 5828 5828
5872 5872 5873 5873 5873 5873 5873 5873 5873 5873 5874 5874 5874 5874 5874 5874 5874 5874 5874 5874 5874 5874 5874 5874 5873 5873 5873 5873 5872 5873 5872 5871 5871 5871 5870 5870 5870 5870 5869 5869 5868 5867 5867 5866 5865 5864 5864 5863 5862 5861 5860 5860 5859 5858 5857 5856 5855 5855 5854 5853 5852 5850 5850 5849 5848 5847 5846 5845 5844 5844 5843 5842 5841 5841 5838 5836 5836 5836 5835 5834 5833 5831 5830 5829 5828 5827 5826 5825
5869 5869 5869 5869 5869 5869 5869 5869 5869 5870 5870 5870 5870 5871 5870 5870 5870 5870 5870 5870 5870 5870 5870 5870 5870 5869 5869 5869 5869 5870 5869 5869 5868 5868 5868 5867 5867 5867 5867 5866 5866 5865 5864 5863 5862 5861 5861 5860 5860 5859 5858 5857 5856 5855 5855 5854 5853 5852 5851 5851 5849 5848 5847 5846 5845 5844 5843 5843 5841 5841 5841 5840 5839 5839 5836 5835 5834 5833 5833 5832 5831 5829 5828 5827 5826 5824 5823 5822
5866 5866 5866 5866 5866 5866 5866 5866 5866 5866 5866 5866 5866 5867 5867 5867 5866 5866 5866 5866 5866 5866 5865 5865 5865 5865 5865 5865 5866 5866 5865 5865 5865 5865 5864 5864 5864 5864 5864 5863 5863 5862 5861 5861 5859 5858 5858 5857 5857 5856 5855 5854 5853 5852 5852 5851 5850 5849 5848 5848 5847 5845 5845 5844 5843 5842 5841 5840 5839 5838 5839 5839 5837 5836 5834 5833 5833 5831 5830 5830 5828 5827 5826 5825 5823 5822 5821 5819
5862 5862 5863 5863 5863 5863 5862 5862 5863 5862 5862 5862 5862 5863 5863 5863 5862 5862 5862 5862 5861 5861 5861 5861 5861 5861 5860 5862 5862 5862 5862 5862 5861 5861 5861 5860 5860 5860 5860 5860 5859 5859 5858 5857 5857 5855 5854 5854 5853 5853 5852 5851 5850 5849 5849 5848 5847 5846 5845 5844 5843 5843 5842 5842 5840 5838 5838 5837 5836 5834 5836 5838 5835 5833 5832 5830 5830 5829 5828 5827 5825 5824 5823 5822 5821 5819 5818 5816
5859 5859 5859 5859 5859 5859 5859 5859 5859 5859 5859 5858 5858 5858 5859 5859 5859 5858 5858 5858 5857 5857 5857 5856 5856 5856 5856 5858 5859 5857 5858 5858 5857 5857 5857 5857 5857 5857 5857 5856 5856 5855 5854 5854 5853 5852 5851 5851 5850 5849 5849 5848 5847 5846 5845 5845 5843 5843 5841 5840 5840 5839 5839 5839 5837 5835 5834 5834 5833 5830 5832 5837 5834 5831 5830 5827 5826 5827 5826 5825 5823 5821 5820 5819 5818 5816 5815 5814
5856 5856 5856 5856 5856 5856 5856 5856 5855 5855 5855 5854 5854 5854 5855 5855 5854 5854 5854 5854 5853 5853 5853 5852 5852 5851 5851 5853 5855 5854 5853 5853 5853 5853 5853 5853 5853 5853 5853 5852 5852 5851 5850 5850 5849 5848 5848 5847 5846 5846 5846 5844 5843 5842 5841 5841 5841 5839 5837 5837 5837 5835 5835 5835 5834 5832 5831 5830 5829 5826 5827 5834 5834 5828 5827 5826 5823 5823 5824 5823 5821 5819 5818 5816 5814 5813 5811 5810
5852 5853 5853 5852 5852 5853 5852 5852 5852 5852 5852 5851 5850 5850 5850 5851 5851 5850 5850 5850 5850 5849 5848 5848 5847 5847 5846 5849 5851 5850 5850 5849 5848 5849 5849 5849 5849 5849 5849 5848 5847 5847 5846 5845 5845 5845 5844 5843 5842 5842 5842 5841 5840 5839 5837 5836 5837 5836 5832 5833 5833 5831 5830 5830 5830 5829 5827 5826 5825 5822 5821 5828 5832 5828 5825 5823 5821 5820 5820 5820 5818 5816 5815 5814 5811 5809 5808 5806
5848 5849 5849 5849 5849 5849 5849 5848 5848 5848 5848 5847 5846 5845 5846 5846 5846 5846 5846 5846 5845 5845 5844 5844 5844 5842 5841 5845 5847 5846 5845 5844 5844 5845 5845 5845 5845 5845 5844 5843 5843 5842 5841 5841 5840 5840 5840 5839 5838 5838 5838 5838 5837 5835 5833 5832 5833 5831 5828 5829 5830 5827 5826 5824 5825 5825 5823 5821 5820 5818 5816 5821 5827 5826 5823 5821 5818 5817 5817 5817 5816 5813 5812 5811 5809 5806 5805 5803
5844 5845 5845 5845 5845 5845 5845 5844 5844 5845 5845 5844 5842 5841 5841 5841 5842 5841 5842 5842 5841 5841 5840 5839 5839 5837 5837 5841 5843 5842 5841 5840 5840 5841 5841 5841 5841 5841 5840 5839 5839 5838 5837 5836 5836 5836 5835 5834 5834 5834 5833 5834 5834 5831 5828 5828 5829 5826 5823 5824 5826 5824 5822 5820 5819 5819 5819 5816 5814 5812 5811 5816 5821 5821 5820 5818 5815 5814 5814 5814 5813 5810 5808 5807 5806 5803 5801 5800
5840 5840 5840 5841 5841 5841 5840 5840 5840 5840 5841 5840 5838 5837 5836 5836 5837 5837 5837 5837 5836 5837 5835 5835 5835 5832 5833 5837 5837 5837 5837 5836 5836 5837 5837 5837 5837 5836 5835 5835 5834 5833 5832 5832 5831 5831 5830 5829 5829 5829 5830 5831 5831 5827 5823 5823 5824 5822 5820 5818 5819 5819 5819 5818 5814 5812 5813 5810 5808 5807 5805 5809 5814 5816 5816 5815 5811 5810 5811 5811 5809 5807 5805 5802 5801 5800 5798 5797
5835 5835 5836 5836 5836 5836 5836 5836 5836 5836 5837 5836 5834 5833 5832 5831 5831 5832 5832 5832 5832 5832 5830 5829 5830 5828 5828 5832 5832 5831 5832 5832 5832 5833 5833 5833 5832 5831 5831 5830 5830 5829 5828 5828 5827 5826 5825 5823 5823 5825 5827 5827 5825 5822 5820 5819 5819 5817 5817 5815 5813 5813 5813 5815 5810 5807 5808 5803 5802 5802 5799 5802 5807 5810 5812 5811 5808 5806 5807 5807 5805 5803 5802 5799 5797 5796 5794 5793
5830 5831 5831 5831 5831 5831 5831 5831 5831 5831 5832 5832 5830 5829 5828 5826 5826 5826 5826 5827 5827 5826 5824 5824 5825 5824 5824 5826 5827 5826 5827 5827 5827 5829 5830 5829 5828 5827 5827 5826 5825 5824 5823 5823 5821 5821 5820 5816 5818 5823 5824 5822 5818 5817 5816 5815 5814 5813 5812 5811 5809 5808 5809 5811 5806 5803 5803 5796 5796 5798 5793 5795 5800 5802 5805 5806 5803 5802 5802 5802 5801 5800 5797 5796 5794 5791 5790 5789
5825 5826 5826 5826 5826 5826 5826 5826 5826 5826 5826 5827 5826 5824 5823 5822 5821 5820 5820 5821 5821 5821 5820 5819 5818 5819 5821 5821 5821 5821 5821 5822 5824 5826 5826 5825 5824 5823 5822 5822 5820 5819 5820 5818 5815 5815 5814 5810 5815 5821 5819 5816 5814 5812 5811 5810 5809 5808 5807 5806 5804 5804 5804 5804 5801 5799 5798 5790 5790 5792 5787 5788 5794 5796 5799 5800 5798 5797 5798 5797 5796 5796 5793 5791 5790 5788 5786 5784
5820 5821 5821 5821 5821 5821 5821 5821 5821 5821 5821 5821 5821 5820 5818 5817 5815 5815 5814 5813 5815 5816 5815 5813 5813 5814 5816 5815 5816 5816 5815 5817 5820 5822 5821 5820 5820 5819 5818 5817 5816 5814 5814 5814 5811 5809 5806 5807 5814 5816 5812 5811 5810 5808 5807 5805 5804 5803 5802 5800 5799 5801 5800 5797 5795 5795 5793 5786 5785 5785 5781 5782 5789 5790 5792 5795 5793 5791 5793 5793 5792 5791 5789 5787 5785 5784 5782 5780
5815 5816 5816 5815 5815 5815 5816 5815 5815 5816 5815 5815 5815 5815 5814 5812 5811 5810 5807 5804 5806 5811 5810 5809 5808 5807 5809 5809 5810 5810 5810 5814 5816 5817 5818 5817 5816 5816 5812 5813 5813 5809 5808 5810 5808 5803 5800 5804 5810 5810 5807 5806 5805 5804 5803 5801 5799 5798 5797 5795 5794 5797 5795 5790 5789 5789 5787 5782 5779 5779 5774 5775 5783 5784 5786 5790 5788 5786 5787 5788 5788 5787 5785 5782 5780 5779 5777 5776
5809 5810 5810 5810 5810 5809 5810 5810 5810 5810 5810 5810 5810 5809 5809 5808 5806 5805 5802 5797 5795 5801 5806 5805 5802 5801 5803 5804 5804 5804 5806 5810 5810 5812 5815 5813 5811 5811 5808 5808 5807 5803 5804 5806 5803 5797 5796 5800 5804 5804 5803 5802 5800 5799 5799 5797 5794 5792 5792 5792 5791 5792 5789 5784 5783 5783 5781 5777 5775 5774 5766 5765 5776 5778 5780 5784 5783 5783 5783 5781 5782 5783 5782 5779 5776 5774 5772 5770
5803 5803 5803 5804 5804 5803 5804 5804 5805 5804 5804 5805 5804 5804 5803 5802 5802 5800 5797 5791 5784 5790 5800 5799 5796 5796 5797 5799 5800 5801 5801 5803 5805 5807 5810 5808 5806 5805 5803 5802 5800 5798 5800 5800 5796 5791 5791 5796 5798 5798 5797 5797 5794 5793 5795 5794 5789 5785 5786 5789 5789 5786 5783 5780 5779 5777 5774 5770 5770 5771 5762 5757 5766 5771 5773 5778 5779 5779 5779 5776 5775 5776 5774 5772 5771 5769 5766 5765
5796 5797 5797 5798 5797 5798 5798 5798 5799 5799 5798 5799 5798 5798 5798 5796 5797 5795 5792 5786 5774 5778 5790 5792 5791 5793 5794 5795 5797 5797 5795 5796 5800 5802 5802 5802 5801 5799 5797 5795 5795 5794 5794 5794 5790 5784 5787 5792 5793 5792 5791 5791 5789 5788 5791 5791 5785 5779 5780 5785 5784 5781 5778 5776 5774 5771 5768 5765 5762 5764 5761 5754 5755 5762 5765 5768 5771 5772 5774 5774 5773 5770 5766 5764 5764 5763 5760 5759
5790 5790 5790 5791 5791 5792 5792 5793 5793 5793 5793 5793 5792 5793 5792 5791 5791 5789 5788 5780 5766 5766 5776 5781 5785 5789 5792 5794 5793 5793 5791 5792 5795 5796 5795 5795 5794 5793 5790 5789 5789 5789 5788 5787 5783 5779 5784 5788 5787 5786 5785 5784 5783 5784 5786 5785 5780 5775 5775 5778 5778 5776 5774 5771 5770 5767 5763 5762 5756 5754 5760 5755 5747 5751 5757 5757 5760 5763 5766 5769 5770 5768 5764 5758 5757 5757 5755 5753
5784 5784 5784 5785 5785 5785 5786 5787 5787 5787 5787 5787 5787 5786 5786 5786 5786 5785 5784 5773 5759 5757 5763 5771 5778 5783 5787 5790 5790 5790 5789 5788 5789 5788 5788 5788 5786 5786 5785 5784 5783 5782 5783 5780 5776 5776 5779 5781 5781 5780 5779 5778 5779 5780 5780 5778 5775 5772 5771 5771 5771 5770 5769 5767 5764 5762 5759 5756 5750 5748 5756 5753 5742 5743 5746 5745 5750 5755 5759 5762 5763 5763 5761 5755 5751 5750 5750 5750
5777 5777 5778 5778 5778 5779 5780 5780 5781 5781 5781 5781 5781 5779 5780 5780 5779 5780 5777 5764 5752 5751 5755 5763 5771 5774 5778 5782 5785 5785 5785 5784 5783 5782 5782 5781 5780 5780 5778 5778 5776 5775 5776 5774 5770 5771 5772 5773 5775 5773 5773 5774 5775 5774 5773 5772 5770 5768 5766 5765 5765 5764 5763 5762 5758 5756 5756 5749 5744 5746 5751 5747 5737 5735 5736 5735 5741 5747 5751 5755 5756 5757 5756 5751 5746 5742 5743 5745
5770 5771 5772 5772 5772 5772 5773 5774 5774 5774 5775 5775 5774 5773 5774 5773 5773 5773 5765 5752 5748 5751 5753 5757 5762 5767 5771 5774 5776 5777 5777 5778 5778 5777 5776 5775 5774 5773 5771 5772 5770 5768 5768 5766 5765 5767 5767 5767 5767 5767 5769 5769 5768 5768 5767 5766 5764 5763 5762 5759 5759 5757 5756 5755 5751 5750 5749 5742 5741 5746 5747 5743 5731 5725 5728 5729 5733 5737 5741 5747 5749 5751 5751 5748 5744 5738 5736 5738
5763 5764 5765 5766 5766 5766 5766 5767 5767 5768 5768 5768 5767 5767 5766 5766 5767 5762 5750 5745 5749 5753 5753 5753 5755 5759 5763 5766 5767 5768 5769 5770 5771 5771 5770 5770 5768 5767 5765 5765 5764 5762 5760 5759 5759 5762 5761 5760 5761 5762 5764 5763 5762 5762 5762 5761 5760 5758 5757 5755 5753 5751 5748 5747 5744 5744 5742 5737 5739 5740 5740 5737 5726 5720 5725 5725 5726 5728 5731 5736 5741 5745 5745 5743 5741 5736 5732 5732
5756 5757 5758 5759 5759 5759 5760 5760 5761 5761 5760 5761 5760 5759 5759 5758 5755 5749 5742 5745 5749 5748 5752 5753 5752 5753 5754 5756 5759 5761 5761 5761 5762 5764 5764 5764 5762 5761 5760 5758 5758 5756 5754 5753 5754 5755 5754 5754 5755 5755 5756 5757 5757 5756 5755 5755 5755 5753 5752 5750 5747 5744 5741 5738 5736 5737 5738 5735 5735 5734 5731 5725 5717 5718 5724 5723 5724 5724 5722 5727 5734 5738 5738 5737 5735 5731 5728 5726
5749 5750 5751 5752 5753 5752 5752 5753 5754 5753 5753 5753 5752 5751 5752 5749 5743 5741 5742 5746 5745 5744 5748 5749 5748 5748 5747 5747 5749 5752 5753 5753 5754 5755 5755 5756 5755 5754 5754 5753 5752 5751 5749 5748 5747 5746 5745 5746 5749 5748 5750 5752 5751 5749 5749 5748 5748 5747 5745 5743 5741 5739 5734 5731 5732 5732 5731 5729 5728 5726 5722 5714 5709 5715 5720 5720 5721 5719 5716 5722 5728 5731 5731 5731 5730 5727 5723 5720
5741 5742 5743 5745 5747 5746 5746 5746 5746 5746 5745 5744 5743 5743 5744 5739 5736 5737 5738 5742 5743 5742 5742 5742 5742 5743 5742 5741 5740 5742 5744 5744 5745 5747 5747 5747 5746 5747 5748 5747 5747 5746 5744 5742 5740 5739 5737 5738 5741 5742 5744 5745 5743 5743 5742 5740 5740 5739 5738 5736 5733 5733 5729 5728 5730 5728 5722 5721 5720 5716 5711 5707 5706 5710 5712 5712 5712 5710 5711 5718 5723 5724 5725 5724 5723 5722 5718 5713
5733 5734 5735 5737 5740 5741 5741 5738 5737 5738 5735 5734 5735 5734 5733 5732 5733 5734 5733 5734 5737 5738 5737 5737 5737 5736 5735 5734 5733 5734 5735 5734 5736 5737 5737 5737 5738 5739 5739 5739 5740 5740 5738 5736 5734 5734 5731 5730 5734 5733 5735 5738 5737 5737 5736 5733 5732 5730 5730 5729 5725 5728 5728 5724 5724 5721 5717 5714 5710 5707 5703 5703 5705 5705 5705 5704 5703 5703 5706 5711 5716 5718 5719 5719 5717 5715 5712 5707
5725 5726 5726 5728 5733 5735 5733 5730 5729 5728 5726 5725 5723 5721 5725 5728 5729 5729 5728 5727 5728 5731 5731 5731 5731 5729 5728 5727 5727 5729 5729 5727 5728 5728 5727 5728 5729 5730 5730 5731 5734 5733 5731 5729 5727 5727 5724 5723 5726 5725 5725 5729 5729 5729 5730 5727 5724 5722 5722 5722 5721 5724 5722 5717 5715 5715 5713 5707 5702 5701 5698 5698 5700 5698 5696 5698 5698 5699 5701 5704 5708 5711 5712 5711 5709 5707 5705 5701
5716 5716 5717 5721 5726 5726 5724 5722 5720 5718 5717 5713 5710 5713 5720 5723 5723 5723 5722 5722 5721 5721 5722 5722 5724 5724 5722 5720 5720 5723 5723 5720 5720 5720 5720 5720 5720 5722 5723 5723 5726 5726 5725 5723 5719 5720 5717 5714 5719 5718 5716 5719 5721 5721 5722 5720 5716 5715 5716 5717 5717 5716 5713 5710 5707 5707 5707 5701 5697 5698 5695 5693 5694 5689 5687 5690 5690 5691 5694 5698 5701 5704 5704 5702 5700 5699 5697 5694
5708 5706 5706 5713 5717 5715 5714 5712 5709 5709 5705 5699 5700 5709 5712 5714 5719 5718 5714 5716 5715 5712 5713 5714 5714 5714 5715 5715 5713 5713 5714 5713 5714 5714 5713 5713 5712 5714 5717 5716 5717 5719 5719 5716 5711 5712 5710 5706 5710 5711 5707 5710 5713 5712 5711 5710 5709 5710 5712 5712 5710 5706 5704 5704 5701 5699 5700 5696 5691 5692 5692 5688 5686 5686 5685 5684 5681 5680 5685 5692 5696 5698 5697 5694 5693 5691 5689 5687
5701 5696 5695 5704 5707 5704 5705 5702 5699 5698 5692 5687 5692 5702 5705 5708 5712 5710 5707 5709 5709 5706 5705 5705 5705 5704 5705 5708 5705 5704 5705 5705 5706 5707 5706 5707 5705 5706 5709 5709 5709 5711 5712 5709 5704 5705 5703 5697 5699 5704 5702 5701 5703 5703 5701 5702 5705 5704 5704 5703 5701 5698 5695 5693 5693 5694 5693 5689 5685 5686 5685 5678 5677 5683 5683 5680 5677 5675 5678 5686 5690 5690 5689 5686 5684 5682 5681 5680
5694 5686 5684 5697 5699 5694 5695 5691 5686 5684 5678 5679 5687 5693 5697 5700 5701 5700 5699 5701 5701 5698 5696 5697 5696 5694 5695 5698 5697 5697 5697 5695 5698 5699 5697 5699 5699 5698 5699 5701 5702 5703 5703 5700 5698 5698 5696 5690 5690 5695 5695 5693 5695 5697 5697 5698 5698 5695 5693 5692 5691 5690 5688 5684 5685 5688 5685 5681 5681 5681 5676 5668 5668 5674 5674 5672 5673 5673 5675 5682 5685 5682 5681 5678 5675 5673 5671 5671
5683 5676 5676 5689 5690 5686 5686 5677 5671 5672 5669 5672 5681 5684 5686 5687 5690 5692 5692 5691 5690 5689 5689 5689 5686 5686 5687 5687 5687 5688 5687 5685 5689 5689 5687 5691 5693 5690 5691 5692 5694 5694 5692 5691 5691 5690 5687 5683 5681 5683 5685 5686 5690 5693 5692 5690 5687 5684 5682 5683 5682 5683 5682 5676 5673 5677 5678 5673 5675 5675 5666 5661 5663 5666 5666 5666 5668 5668 5668 5672 5676 5676 5674 5670 5666 5665 5662 5661
5670 5666 5668 5678 5679 5678 5676 5663 5658 5661 5659 5664 5673 5674 5673 5675 5679 5681 5680 5680 5679 5678 5680 5680 5679 5679 5679 5678 5678 5679 5676 5675 5678 5678 5677 5681 5684 5683 5684 5684 5683 5684 5683 5681 5682 5682 5678 5673 5671 5671 5674 5680 5684 5685 5683 5679 5677 5674 5672 5674 5676 5675 5675 5669 5664 5668 5670 5665 5667 5664 5651 5651 5661 5664 5663 5663 5665 5666 5661 5660 5665 5667 5665 5662 5659 5657 5655 5653
5658 5657 5658 5665 5668 5669 5664 5652 5648 5649 5650 5659 5664 5662 5662 5664 5665 5668 5669 5669 5669 5669 5669 5670 5672 5672 5670 5671 5671 5668 5666 5665 5666 5668 5668 5669 5673 5676 5677 5677 5675 5673 5672 5671 5672 5673 5668 5662 5661 5661 5663 5668 5673 5674 5673 5670 5665 5662 5664 5669 5670 5666 5667 5665 5659 5660 5658 5655 5658 5651 5635 5642 5659 5662 5661 5662 5662 5663 5657 5652 5656 5657 5655 5654 5652 5650 5648 5645
5647 5648 5648 5651 5655 5657 5650 5641 5640 5640 5642 5649 5651 5650 5654 5653 5652 5658 5659 5658 5659 5660 5660 5660 5663 5662 5661 5663 5661 5659 5659 5655 5653 5658 5657 5657 5663 5667 5667 5668 5666 5663 5663 5664 5663 5661 5657 5652 5652 5652 5650 5653 5659 5662 5662 5661 5657 5655 5659 5663 5660 5658 5658 5655 5651 5649 5642 5642 5648 5636 5621 5635 5656 5656 5656 5660 5658 5655 5652 5649 5650 5649 5647 5646 5645 5643 5641 5637
5636 5636 5637 5639 5640 5640 5637 5635 5635 5631 5632 5637 5637 5641 5645 5641 5642 5649 5649 5647 5649 5651 5651 5650 5651 5652 5652 5653 5651 5650 5651 5647 5644 5647 5647 5647 5652 5657 5658 5657 5656 5655 5655 5655 5652 5649 5647 5644 5642 5642 5638 5638 5644 5651 5654 5654 5650 5648 5649 5651 5649 5650 5648 5643 5641 5637 5628 5628 5633 5624 5614 5626 5643 5647 5649 5654 5651 5646 5646 5645 5643 5642 5641 5639 5637 5634 5631 5630
5624 5623 5625 5629 5627 5623 5624 5629 5628 5620 5623 5628 5625 5628 5633 5630 5635 5641 5637 5635 5639 5641 5640 5638 5640 5643 5643 5643 5642 5640 5641 5641 5638 5637 5638 5639 5642 5646 5647 5645 5645 5646 5645 5645 5643 5639 5635 5634 5633 5631 5628 5627 5632 5641 5647 5645 5637 5634 5638 5639 5638 5638 5637 5634 5628 5621 5619 5618 5615 5616 5617 5616 5625 5637 5641 5644 5644 5640 5639 5639 5635 5635 5634 5631 5629 5626 5624 5624
5612 5609 5612 5618 5616 5610 5609 5616 5617 5611 5614 5617 5610 5612 5620 5621 5625 5629 5626 5626 5631 5631 5627 5625 5628 5631 5631 5633 5633 5630 5632 5633 5630 5628 5629 5633 5635 5635 5635 5634 5634 5635 5635 5636 5635 5630 5623 5621 5623 5622 5618 5619 5622 5628 5635 5634 5626 5623 5625 5626 5626 5625 5625 5623 5615 5612 5617 5609 5598 5610 5620 5610 5610 5624 5630 5632 5636 5633 5631 5630 5627 5626 5626 5623 5619 5617 5616 5615
5599 5597 5601 5605 5603 5598 5597 5603 5609 5605 5601 5600 5596 5598 5606 5609 5612 5616 5618 5620 5620 5618 5614 5611 5614 5617 5620 5624 5622 5618 5621 5621 5619 5620 5622 5625 5629 5626 5624 5625 5623 5623 5625 5624 5623 5621 5612 5607 5613 5614 5609 5610 5613 5614 5620 5622 5617 5614 5612 5612 5614 5614 5614 5613 5607 5607 5609 5598 5590 5605 5613 5604 5604 5613 5617 5621 5626 5623 5620 5619 5617 5617 5618 5615 5609 5606 5606 5604
5590 5587 5589 5591 5587 5585 5587 5591 5597 5593 5587 5587 5585 5585 5592 5598 5600 5606 5611 5610 5604 5605 5605 5602 5605 5610 5612 5614 5610 5605 5608 5609 5608 5613 5616 5615 5617 5615 5613 5613 5612 5612 5612 5612 5612 5611 5602 5597 5604 5605 5597 5598 5603 5604 5607 5609 5606 5605 5604 5604 5603 5603 5605 5605 5598 5598 5600 5591 5590 5598 5597 5593 5599 5606 5608 5612 5613 5611 5609 5609 5608 5608 5607 5604 5598 5594 5596 5596
5580 5577 5576 5575 5572 5573 5576 5579 5583 5580 5577 5578 5574 5573 5582 5587 5590 5597 5601 5596 5592 5595 5596 5593 5598 5604 5602 5600 5597 5593 5597 5601 5600 5605 5608 5603 5602 5604 5600 5598 5602 5602 5600 5601 5601 5599 5594 5591 5595 5595 5585 5584 5593 5598 5597 5597 5594 5592 5593 5595 5595 5595 5596 5596 5592 5593 5593 5587 5587 5589 5581 5579 5592 5601 5601 5601 5600 5599 5598 5599 5599 5598 5595 5592 5586 5584 5587 5588
5568 5565 5563 5560 5558 5562 5565 5567 5570 5568 5566 5567 5565 5567 5572 5573 5580 5587 5585 5583 5581 5580 5584 5586 5590 5593 5590 5585 5584 5584 5590 5594 5591 5594 5596 5590 5588 5591 5588 5586 5590 5590 5589 5591 5590 5589 5587 5583 5585 5586 5573 5570 5586 5590 5585 5586 5582 5575 5577 5585 5590 5591 5588 5587 5588 5588 5586 5581 5578 5576 5570 5571 5585 5594 5592 5591 5592 5590 5589 5589 5587 5584 5584 5581 5577 5576 5579 5579
5555 5551 5551 5546 5542 5548 5555 5556 5558 5555 5553 5556 5558 5560 5560 5561 5569 5572 5565 5565 5569 5570 5574 5579 5579 5578 5573 5570 5575 5581 5584 5584 5580 5580 5582 5579 5578 5578 5575 5575 5578 5577 5578 5581 5580 5578 5578 5574 5576 5576 5563 5560 5576 5580 5574 5573 5562 5554 5567 5583 5586 5583 5580 5578 5579 5579 5578 5574 5568 5564 5564 5569 5578 5583 5581 5582 5585 5584 5580 5577 5573 5571 5572 5570 5569 5570 5571 5569